Home   Weather   Virginia Beach   Past weeks

Flag for USA Past Weather in Virginia Beach, Virginia, USA — Yesterday and Last 2 Weeks

Now
48 °F

Scattered clouds.


Feels Like: 41 °F
Forecast: 40 / 51 °F
Wind: 18 mph from Northwest

Location: Virginia Beach - Oceana

Current Time: Dec 3, 2016 at 10:57:51 am

Latest Report: Dec 3, 2016 at 9:56 am


Visibility: 10 mi

Pressure: 30.23 "Hg

Humidity: 46%

Dew Point: 28 °F

Location of Virginia BeachLocation

Past Weather in Virginia Beach — Graph

°F

Virginia Beach Temperature Yesterday

Maximum temperature yesterday: 54 °F (at 12:56 pm)
Minimum temperature yesterday: 39 °F (at 6:56 am)
Average temperature yesterday: 47 °F

High & Low Weather Summary for the Past Weeks

 TemperatureHumidityPressure
High74 °F (Nov 19, 1:56 pm)100% (Nov 24, 1:56 pm)30.38 "Hg (Nov 24, 1:56 pm)
Low29 °F (Nov 22, 3:56 am)19% (Nov 22, 2:56 pm)29.64 "Hg (Dec 1, 12:56 am)
Average50 °F65%30.07 "Hg
* Reported Nov 18 8:56 am — Dec 3 8:56 am, Virginia Beach, Weather by CustomWeather, © 2016

Note: Actual official high and low records may vary slightly from our data, if they occured in-between our weather recording intervals... More about our weather records

Advertising

Virginia Beach Weather History for the Previous 24 Hours

Scroll right to see more
 ConditionsComfort  
Time TempWeatherWind HumidityBarometerVisibility
8:56 am
Sat, Dec 3
46 °FPassing clouds.16 mph51%30.21 "Hg10 mi
7:56 am43 °FScattered clouds.9 mph58%30.21 "Hg10 mi
6:56 am39 °FPassing clouds.7 mph65%30.20 "Hg10 mi
5:56 am38 °FPassing clouds.7 mph65%30.19 "Hg10 mi
4:56 am39 °FClear.6 mph62%30.17 "Hg10 mi
3:56 am42 °FClear.12 mph55%30.15 "Hg10 mi
2:56 am42 °FClear.12 mph57%30.15 "Hg10 mi
1:56 am43 °FPassing clouds.15 mph56%30.14 "Hg10 mi
12:56 am43 °FPassing clouds.17 mph58%30.14 "Hg10 mi
11:56 pm
Fri, Dec 2
44 °FPassing clouds.14 mph63%30.13 "Hg10 mi
10:56 pm46 °FPassing clouds.13 mph68%30.12 "Hg10 mi
9:56 pm42 °FClear.7 mph68%30.09 "Hg10 mi
8:56 pm43 °FClear.6 mph65%30.09 "Hg10 mi
7:56 pm44 °FClear.5 mph63%30.08 "Hg10 mi
6:56 pm43 °FClear.5 mph62%30.07 "Hg10 mi
5:56 pm48 °FPassing clouds.5 mph50%30.06 "Hg10 mi
4:56 pm50 °FClear.8 mph46%30.05 "Hg10 mi
3:56 pm53 °FSunny.8 mph41%30.04 "Hg10 mi
2:56 pm54 °FSunny.8 mph38%30.03 "Hg10 mi
1:56 pm54 °FSunny.8 mph37%30.03 "Hg10 mi
12:56 pm54 °FSunny.8 mph37%30.04 "Hg10 mi
11:56 am53 °FSunny.10 mph39%30.06 "Hg10 mi
10:56 am52 °FSunny.9 mph40%30.09 "Hg10 mi
Weather by CustomWeather, © 2016

See weather overviewHow to use our weather pages